EVA757 ZSHC-RCTP

Flight info

Callsign EVA757
Flight time N/A
Altitude 38100
Route UGAG8D/25 UGAGO A470 BZ/K0907S1190 R596 SULEM/N0491F380 R596 BERBA B576 BAKER BAKER1A
Aircraft A359/H-SDE2E3GHIJ3J4J5LM1ORWXY/LB1D1

Departure

Time N/A
Airport Hangzhou Xiaoshan International Airport (ZSHC)

Arrival

Time 2026-05-04 17:07
Airport Taiwan Taoyuan International Airport (RCTP)
Time Latitude Longitude Altitude Speed Heading
2026-05-04 16:47 25.39147 121.45381 14515 ft 368 kts 232°
2026-05-04 16:47 25.35864 121.41143 13402 ft 358 kts 232°
2026-05-04 16:48 25.31031 121.34955 11365 ft 352 kts 231°
2026-05-04 16:48 25.29459 121.32951 11151 ft 333 kts 231°
2026-05-04 16:49 25.26740 121.29495 11184 ft 276 kts 231°
2026-05-04 16:49 25.24309 121.26393 11113 ft 260 kts 232°
2026-05-04 16:50 25.21961 121.23397 10302 ft 260 kts 231°
2026-05-04 16:50 25.19595 121.20385 9450 ft 260 kts 231°
2026-05-04 16:51 25.17218 121.17361 8972 ft 261 kts 231°
2026-05-04 16:51 25.16029 121.15850 8717 ft 261 kts 231°
2026-05-04 16:51 25.13661 121.12843 8361 ft 257 kts 231°
2026-05-04 16:52 25.11307 121.09855 8370 ft 259 kts 230°
2026-05-04 16:52 25.10124 121.08353 8372 ft 259 kts 231°
2026-05-04 16:53 25.07787 121.05384 8361 ft 255 kts 230°
2026-05-04 16:53 25.04302 121.00959 8288 ft 254 kts 230°
2026-05-04 16:54 25.03148 120.99496 7892 ft 252 kts 230°
2026-05-04 16:55 24.98548 120.93666 6535 ft 254 kts 229°
2026-05-04 16:55 24.96308 120.90831 6264 ft 233 kts 229°
2026-05-04 16:56 24.94245 120.88306 6072 ft 211 kts 222°
2026-05-04 16:56 24.90452 120.87246 5809 ft 191 kts 171°
2026-05-04 16:57 24.89244 120.87861 5680 ft 189 kts 149°
2026-05-04 16:57 24.87739 120.90093 5315 ft 184 kts 111°
2026-05-04 16:58 24.88344 120.94144 5026 ft 184 kts 55°
2026-05-04 16:58 24.89108 120.95262 4975 ft 182 kts 51°
2026-05-04 16:59 24.90645 120.97401 4763 ft 175 kts 51°
2026-05-04 17:00 24.93409 121.01359 4083 ft 147 kts 58°
2026-05-04 17:00 24.94231 121.04427 3802 ft 137 kts 83°
2026-05-04 17:01 24.94575 121.06447 3598 ft 133 kts 75°
2026-05-04 17:01 24.95264 121.08278 3450 ft 129 kts 65°
2026-05-04 17:02 24.96331 121.09928 3039 ft 136 kts 56°
2026-05-04 17:02 24.97551 121.11537 2676 ft 137 kts 53°
2026-05-04 17:03 24.98173 121.12325 2481 ft 136 kts 53°
2026-05-04 17:03 24.98792 121.13114 2318 ft 136 kts 52°
2026-05-04 17:03 25.00019 121.14670 1950 ft 133 kts 50°
2026-05-04 17:04 25.01233 121.16210 1589 ft 133 kts 49°
2026-05-04 17:04 25.02438 121.17734 1242 ft 131 kts 49°
2026-05-04 17:05 25.03636 121.19251 885 ft 130 kts 51°
2026-05-04 17:05 25.04742 121.20667 538 ft 117 kts 47°
2026-05-04 17:06 25.05845 121.22051 243 ft 125 kts 49°
2026-05-04 17:06 25.06390 121.22751 119 ft 114 kts 47°
2026-05-04 17:07 25.07044 121.23572 103 ft 23 kts 45°
2026-05-04 17:07 25.07122 121.23648 103 ft 21 kts 38°
2026-05-04 17:07 25.07264 121.23725 102 ft 15 kts 19°
2026-05-04 17:07 25.07353 121.23759 105 ft 13 kts 19°
2026-05-04 17:08 25.07434 121.23788 106 ft 12 kts 17°
2026-05-04 17:08 25.07568 121.23726 104 ft 12 kts 320°
2026-05-04 17:08 25.07612 121.23654 107 ft 10 kts 282°
2026-05-04 17:09 25.07651 121.23588 105 ft 11 kts 320°
2026-05-04 17:09 25.07683 121.23557 105 ft 0 kts 319°
2026-05-04 17:10 25.07690 121.23550 105 ft 0 kts 319°
2026-05-04 17:10 25.07691 121.23549 105 ft 0 kts 319°